sat.trackr.live / text

‹ back to catalog

STARLINK-37162

NORAD 68262 · 2026-055A

PAYLOAD ACTIVE UNKNOWN

§ Identity

Operator
Country
US
Launch date
2026-03-19
Launch site
AFETR
Launch vehicle
Mass (kg)
RCS (m²)

Purposes: comms

External: N2YO · Heavens-Above · Gunter

§ Orbital elements

Epoch: 2026-09-19T22:33:19.721376Z

Period
93.85 min
Inclination
53.1569°
Eccentricity
0.0001137
Mean motion
15.34408682 rev/d
Perigee alt
461.9 km
Apogee alt
463.5 km
Semi-major
6,840.8 km
B*
4.4825e-4
RAAN
132.5863°
Arg perigee
101.7606°
Mean anomaly
258.3524°
Rev number
2,973

§ Raw data

STARLINK-371621 68262U 26055A   26262.93981159  .00014803  00000+0  44825-3 0  99962 68262  53.1569 132.5863 0001137 101.7606 258.3524 15.34408682 29737

JSON: /api/v1/satellites/68262 · /tle

For live sub-satellite position, see the globe view (requires WebGL).

§ Visibility from observer

Set your observer location to see the next 7 days of passes ≥ 10°. The values pass through the URL so the page stays shareable.

No JS? Fill the form by hand. The geolocation button needs JavaScript.